CZ-6A DEB, 56682

Orbit data source: Space-Track

CZ-6A DEB, 56682 is space debris in SSO originally from a launch on Fri, 11 Nov 2022 UTC launched from the Taiyaun Space Center, China (TSC). Debris objects in space refer to the collection of defunct objects orbiting the Earth. Examples of debris include non-operational satellites, rocket bodies, and fragments generated from explosions, collisions, or faulty payload assembly.

Loading next visibility...
Identifier
56682, 2022-151AHJ
Orbit
SSO
Country
Flag of CNCN / PRC
Related business
Manufacturer
SAST
Mission
Spacecraft
Bus & Motor
Unknown
Mass
Unknown
Launch date (UTC)
2022-11-11 (3 years ago)
Launch vehicle
Unknown
Launch site
Taiyaun Space Center, China (TSC)
Object type
Payload
Rocket body
Debris
Shape & HBR
Unknown shape, 0.1 m
Radar Cross Section
Small (<0.1 m²)

Expand to show TLE details & history
Last TLE update: 14 hours ago

TLE from 14 hours ago
0 CZ-6A DEB
1 56682U 22151AHJ 25349.94649779  .00001000  00000-0  56165-3 0  9993
2 56682  98.8202 347.3997 0044690 117.9895 242.5809 14.12304335134254
Epoch: 2025-12-15T22:42Z
TLE epoch observation values (Epoch: 2025-12-15T22:42:57.409Z)
Latitude
-0.00005°
Longitude
-78.17726°
Altitude
869.392 km
Speed
7.41 km/s
True Right ascension
23h 09m 35s
True Declination
0° 00' 00"
Sunlit
Object was in daylight at epoch
Visualization orbit readout
Latitude
Unknown
Longitude
Unknown
Altitude
Unknown
Speed
Unknown
Apparent Right ascension
Unknown
Apparent Declination
Unknown
Sunlit
N/A
Visualization observer readout
Local Sidereal Time
11:31:29
Azimuth
Unknown
Elevation
Unknown
Doppler factor
Unknown
Orbital elements
Apogee altitude
880.968 km
Perigee altitude
816.375 km
Semi-major axis
7,226.808 km
Eccentricity
0.00447
Inclination
98.8202°
RAAN
347.3997°
Arg. of periapsis
117.9895°
True anomaly
242.12749°
Mean anomaly
242.5809°
Eccentric anomaly
242.35408°
Mean motion
3.53284 °/min
Orbital period
101.9 mins
BSTAR
0.00056165
Loading maneuver chart data...
Computing Atmospheric mass density...
Loading historical data...
Loading historical data...
Loading historical data...
Loading historical data...
Loading historical data...
Loading historical data...
Loading historical data...

Documentation

Showing up to 5 results
|